Location: Knowlton
(51.2333°N, 1.2667°E)
Time: 03:41:22
(UTC+00:00)

Cosmos 2219 - Pass Details

Date: 18 April 2021
Orbit: 834 x 859 km, 71.1° (Epoch: 06 May)

Event Time Altitude Azimuth Distance (km) Brightness Sun altitude
Exits shadow 20:05:50 13° 138° (SE) 2,261 4.8 -10.6°
Maximum altitude 20:08:59 20° 100° (E) 1,862 4.5 -11.0°
Drops below altitude 10° 20:12:53 10° 56° (NE) 2,456 5.4 -11.5°
Sets 20:15:57 0° 40° (NE) 3,398 6.3 -11.9°
